ORBCOMM-X 1 21576U 91050C 09184.93639438 .00000016 00000-0 19116-4 0 566 2 21576 098.4665 137.0165 0003820 001.9434 358.1771 14.39953803942954 ORBCOMM FM 1 1 23545U 95017A 09184.28786982 .00000191 00000-0 52515-4 0 2427 2 23545 069.9703 108.0432 0010733 225.3987 134.6276 14.61239132756428 ORBCOMM FM 2 1 23546U 95017B 09185.41505633 .00000140 00000-0 42095-4 0 2950 2 23546 069.9731 107.3103 0010878 212.8931 147.1533 14.61191618756608 ORBCOMM FM 8 1 25112U 97084A 09184.49033472 -.00001165 00000-0 -36071-3 0 2687 2 25112 045.0222 280.7982 0010260 181.5485 178.5309 14.34382637602591 ORBCOMM FM 10 1 25113U 97084B 09185.56996931 -.00000033 00000-0 37982-4 0 15 2 25113 045.0202 276.5020 0007392 166.2948 193.8103 14.34378071602748 ORBCOMM FM 11 1 25114U 97084C 09185.56129152 .00000036 00000-0 62597-4 0 9357 2 25114 045.0195 276.1967 0007876 163.5267 196.5838 14.34377327602745 ORBCOMM FM 12 1 25115U 97084D 09185.54382746 -.00004186 00000-0 -14257-2 0 9233 2 25115 045.0182 276.0262 0006541 173.7629 186.3298 14.34375716602749 ORBCOMM FM 9 1 25116U 97084E 09184.71673550 .00000098 00000-0 84288-4 0 957 2 25116 045.0214 280.2920 0006396 146.5582 213.5669 14.34378924602624 ORBCOMM FM 5 1 25117U 97084F 09184.75146318 -.00000038 00000-0 36467-4 0 310 2 25117 045.0221 280.4103 0003995 183.8991 176.1820 14.34379428602621 ORBCOMM FM 6 1 25118U 97084G 09184.67323224 -.00000113 00000-0 99416-5 0 9110 2 25118 045.0208 280.6571 0004018 192.0107 168.0645 14.34376545602617 ORBCOMM FM 7 1 25119U 97084H 09184.69083376 -.00000093 00000-0 16990-4 0 1859 2 25119 045.0219 280.7757 0005042 173.9839 186.1065 14.34381494602611 ORBCOMM FM 3 1 25158U 98007B 09184.85630235 .00000145 00000-0 11496-3 0 9195 2 25158 107.9700 148.5355 0053365 261.2562 098.2526 14.25432376591895 ORBCOMM FM 4 1 25159U 98007C 09185.56572423 .00000108 00000-0 99838-4 0 9140 2 25159 107.9701 149.7885 0049194 260.9254 098.6311 14.25402907592026 ORBCOMM FM 17 1 25413U 98046A 09185.04402035 -.00000080 00000-0 23554-4 0 592 2 25413 044.9967 183.5529 0000754 259.7991 100.2772 14.27538683569104 ORBCOMM FM 18 1 25414U 98046B 09184.41390581 .00000696 00000-0 33602-3 0 9983 2 25414 044.9954 186.2529 0002413 205.5669 154.5056 14.27614607569014 ORBCOMM FM 19 1 25415U 98046C 09185.05325104 -.00000175 00000-0 -14810-4 0 362 2 25415 044.9966 183.4652 0000710 304.8142 055.2635 14.27606061569106 ORBCOMM FM 20 1 25416U 98046D 09184.99367909 -.00000106 00000-0 13328-4 0 4780 2 25416 044.9953 183.9224 0001825 263.5493 096.5153 14.27614045569059 ORBCOMM FM 16 1 25417U 98046E 09184.44385752 .00000002 00000-0 56701-4 0 802 2 25417 044.9975 187.4113 0003030 233.1984 126.8588 14.27612569569012 ORBCOMM FM 15 1 25418U 98046F 09185.01333201 .00000103 00000-0 97532-4 0 1315 2 25418 044.9996 184.9704 0001858 217.9170 142.1536 14.27594634569091 ORBCOMM FM 14 1 25419U 98046G 09184.46386059 .00000375 00000-0 20696-3 0 926 2 25419 044.9977 187.4820 0002559 256.3285 103.7278 14.27616666569019 ORBCOMM FM 13 1 25420U 98046H 09184.33388985 .00000212 00000-0 14131-3 0 9739 2 25420 044.9994 188.4463 0001021 215.0210 145.0584 14.27612939569026 ORBCOMM FM 21 1 25475U 98053A 09184.66644413 -.00000247 00000-0 -42251-4 0 549 2 25475 045.0111 275.1861 0000751 004.1456 355.9389 14.28931033562177 ORBCOMM FM 22 1 25476U 98053B 09184.63150702 .00000189 00000-0 12874-3 0 7367 2 25476 045.0108 275.7349 0001401 152.3956 207.6937 14.28937263562156 ORBCOMM FM 23 1 25477U 98053C 09184.68976712 .00000023 00000-0 63507-4 0 393 2 25477 045.0100 275.2040 0001363 157.5543 202.5361 14.28941016562334 ORBCOMM FM 24 1 25478U 98053D 09184.53834140 -.00000363 00000-0 -87647-4 0 6123 2 25478 045.0112 276.1260 0002226 174.9546 185.1320 14.28932651562298 ORBCOMM FM 25 1 25479U 98053E 09184.43323097 .00000100 00000-0 93716-4 0 9132 2 25479 045.0106 276.0008 0002843 122.9070 237.2083 14.28940121562275 ORBCOMM FM 26 1 25480U 98053F 09185.53051327 .00000147 00000-0 11164-3 0 9878 2 25480 045.0106 261.9710 0005636 126.5074 233.6289 14.29237453562521 ORBCOMM FM 27 1 25481U 98053G 09185.21399972 -.00000090 00000-0 19375-4 0 5300 2 25481 045.0103 272.0663 0001138 203.5637 156.5166 14.28932514562383 ORBCOMM FM 28 1 25482U 98053H 09184.65407382 -.00000140 00000-0 -59934-7 0 6365 2 25482 045.0107 247.8009 0002870 119.9207 240.1922 14.30066727562645 ORBCOMM FM 30 1 25980U 99065A 09184.68940020 -.00000209 00000-0 -27400-4 0 5776 2 25980 045.0337 079.4616 0003965 282.1273 077.9143 14.28826079499649 ORBCOMM FM 31 1 25981U 99065B 09185.16497429 .00000094 00000-0 91625-4 0 6750 2 25981 045.0260 074.8823 0003699 292.8771 067.1686 14.28820791499704 ORBCOMM FM 32 1 25982U 99065C 09185.14260045 .00000120 00000-0 10103-3 0 6077 2 25982 045.0235 074.8899 0006065 275.1718 084.8434 14.29309793499707 ORBCOMM FM 33 1 25983U 99065D 09184.82952901 -.00000338 00000-0 -78387-4 0 5735 2 25983 045.0315 078.3633 0003101 296.3272 063.7259 14.28709275499653 ORBCOMM FM 36 1 25984U 99065E 09185.22104393 .00000136 00000-0 10833-3 0 5987 2 25984 045.0405 078.2975 0002074 136.9587 223.1410 14.28824831499712 ORBCOMM FM 35 1 25985U 99065F 09184.71761373 -.00000073 00000-0 25965-4 0 6321 2 25985 045.0423 081.4646 0002701 294.6947 065.3613 14.28824503499642 ORBCOMM FM 34 1 25986U 99065G 09184.70371442 -.00000229 00000-0 -35158-4 0 5918 2 25986 045.0406 081.0095 0002982 249.9538 110.0990 14.28831030499647 ORBCOMM FM 38 1 33060U 08031A 09184.58326810 .00000003 00000-0 33582-4 0 3485 2 33060 048.4486 357.1000 0006844 121.6891 238.4686 14.68718571 55740 ORBCOMM FM 41 1 33061U 08031B 09184.86951224 -.00000082 00000-0 19085-4 0 3536 2 33061 048.4521 355.9413 0005988 114.2977 245.8557 14.68690559 55795 ORBCOMM FM 29 1 33062U 08031C 09184.58286415 -.00000051 00000-0 24633-4 0 3316 2 33062 048.4477 357.8087 0007959 115.2612 244.9124 14.68343282 55744 ORBCOMM FM 39 1 33063U 08031D 09185.57435284 -.00000061 00000-0 22935-4 0 3489 2 33063 048.4462 353.5653 0009818 114.6618 245.5313 14.68160389 55883 ORBCOMM FM 37 1 33064U 08031E 09185.51450807 -.00000089 00000-0 17961-4 0 3283 2 33064 048.4456 353.2275 0007602 123.6469 236.5160 14.68441357 55884 ORBCOMM FM 40 1 33065U 08031F 09184.88673863 -.00000179 00000-0 25747-5 0 3172 2 33065 048.4506 356.8051 0008817 119.9132 240.2656 14.68118426 55785